sat.trackr.live / text

‹ back to catalog

STARLINK-3241

NORAD 49745 · 2021-115X

PAYLOAD ACTIVE UNKNOWN

§ Identity

Operator
Country
US
Launch date
2021-12-02
Launch site
AFETR
Launch vehicle
Mass (kg)
RCS (m²)

Purposes: comms

External: N2YO · Heavens-Above · Gunter

§ Orbital elements

Epoch: 2026-09-18T22:42:07.567488Z

Period
94.01 min
Inclination
53.1623°
Eccentricity
0.0000866
Mean motion
15.31700068 rev/d
Perigee alt
470.1 km
Apogee alt
471.3 km
Semi-major
6,848.9 km
B*
-2.2572e-5
RAAN
347.2108°
Arg perigee
71.3517°
Mean anomaly
288.7579°
Rev number
26,490

§ Raw data

STARLINK-32411 49745U 21115X   26261.94592092 -.00001065  00000+0 -22572-4 0  99912 49745  53.1623 347.2108 0000866  71.3517 288.7579 15.31700068264908

JSON: /api/v1/satellites/49745 · /tle

For live sub-satellite position, see the globe view (requires WebGL).

§ Visibility from observer

Set your observer location to see the next 7 days of passes ≥ 10°. The values pass through the URL so the page stays shareable.

No JS? Fill the form by hand. The geolocation button needs JavaScript.